Flag for U.S.A. Weather past 2 weeks in Toccoa, Georgia, U.S.A.

Now
54 °F

Sunny.


Feels Like: 51 °F
Forecast: 34 / 54 °F
Wind: 9 mph from West

Location: Clemson-Oconee County Airport

Current Time: Jan 25, 2015 at 1:31:16 PM

Latest Report: Jan 25, 2015 at 12:54 PM


Visibility: 10 mi

Pressure: 29.85 "Hg

Humidity: 40%

Dew point: 30 °F

Location of ToccoaLocation

Historic Weather in Toccoa — Graph

°F

Toccoa temperature yesterday

Maximum temperature yesterday: 55 °F (at 2:54 PM)
Minimum temperature yesterday: 40 °F (at 11:54 PM)
Average temperature yesterday: 45 °F

Past Weeks' High & Low Weather Summary

 TemperatureHumidityPressure
High69 °F (Jan 20, 2:54 PM)93% (Jan 12, 5:54 PM)30.61 "Hg (Jan 12, 5:54 PM)
Low27 °F (Jan 11, 3:54 AM)16% (Jan 19, 2:54 PM)29.64 "Hg (Jan 24, 5:54 AM)
Average46 °F60%30.14 "Hg
* Reported Jan 10 11:54 AM — Jan 25 11:54 AM, Toccoa, Weather by CustomWeather, © 2014

Note: Actual official high and low records may vary slightly from our data, if they occured in-between our weather recording intervals... More about our weather records

Advertising

Toccoa weather history for previous 24 hours

 ConditionsComfort  
Time TempWeatherWind HumidityBarometerVisibility
11:54 AM
Jan 25
52 °FSunny.No wind41%29.90 "Hg10 mi
10:54 AM49 °FSunny.6 mph44%29.92 "Hg10 mi
9:54 AM44 °FSunny.6 mph53%29.93 "Hg10 mi
8:54 AM38 °FSunny.3 mph65%29.93 "Hg10 mi
7:54 AM34 °FSunny.No wind73%29.95 "Hg10 mi
6:54 AM36 °FClear.3 mph67%29.93 "Hg10 mi
5:54 AM36 °FClear.5 mph67%29.92 "Hg10 mi
4:54 AM39 °FClear.13 mph60%29.91 "Hg10 mi
3:54 AM38 °FClear.14 mph60%29.90 "Hg10 mi
2:54 AM39 °FClear.9 mph55%29.90 "Hg10 mi
1:54 AM39 °FClear.10 mph55%29.90 "Hg10 mi
12:54 AM40 °FClear.10 mph51%29.89 "Hg10 mi
11:54 PM
Jan 24
40 °FClear.13 mph51%29.89 "Hg10 mi
10:54 PM41 °FClear.12 mph47%29.87 "Hg10 mi
9:54 PM42 °FClear.13 mph45%29.88 "Hg10 mi
8:54 PM42 °FClear.12 mph45%29.87 "Hg10 mi
7:54 PM43 °FClear.14 mph40%29.85 "Hg10 mi
6:54 PM45 °FClear.14 mph38%29.85 "Hg10 mi
5:54 PM48 °FClear.15 mph36%29.82 "Hg10 mi
4:54 PM52 °FSunny.14 mph31%29.78 "Hg10 mi
3:54 PM54 °FSunny.13 mph30%29.76 "Hg10 mi
2:54 PM55 °FSunny.15 mph30%29.75 "Hg10 mi
1:54 PM53 °FSunny.12 mph37%29.74 "Hg10 mi
Weather by CustomWeather, © 2014

See weather overviewHow to use our weather pages